This demonstration page uses our WeatherBlox Daily Observations layout. Learn more.

Left ArrowRight Arrow

Hourly Observations for September 10, 2015

Temp ( °F °C ) Dew Point ( °F °C ) Humidity (%) Winds ( mph kmh ) Pressure ( in mb ) Visibility ( mi km ) Precip ( " mm )
12:52 am 00:52 Cloudy 70 21.1 68 20 93 93 SE 5 7 29.90 1013 10 16 0.00 0.00
1:52 am 01:52 Cloudy 69 20.6 66 18.9 90 90 NW 6 9 29.91 1013 10 16 0.00 0.00
2:52 am 02:52 Cloudy 67 19.4 66 18.9 97 97 N 3 6 29.91 1013 9 14 0.00 0.00
3:52 am 03:52 Mostly Cloudy with Mist and Fog 65 18.3 64 17.8 97 97 N 6 9 29.91 1013 6 10 0.00 0.00
4:52 am 04:52 Mostly Clear 63 17.2 62 16.7 97 97 N 6 9 29.91 1013 7 11 0.00 0.00
5:52 am 05:52 Clear 61 16.1 60 15.6 97 97 N 3 6 29.91 1013 10 16 0.00 0.00
6:52 am 06:52 Mostly Clear 62 16.7 61 16.1 96 96 WNW 3 6 29.93 1013 10 16 0.00 0.00
7:52 am 07:52 Partly Cloudy 65 18.3 62 16.7 90 90 Calm 29.96 1014 10 16 0.00 0.00
8:52 am 08:52 Partly Cloudy 69 20.6 63 17.2 81 81 NW 7 11 29.96 1015 10 16 0.00 0.00
9:52 am 09:52 Partly Cloudy 72 22.2 62 16.7 71 71 NW 6 9 29.96 1015 10 16 0.00 0.00
11:52 am 11:52 Partly Cloudy 78 25.6 62 16.7 58 58 WNW 7 11 29.95 1014 10 16 0.00 0.00
12:52 pm 12:52 Partly Cloudy 81 27.2 64 17.8 57 57 NW 9 15 29.93 1014 10 16 0.00 0.00
1:52 pm 13:52 Partly Cloudy 82 27.8 64 17.8 55 55 N 12 19 29.91 1013 10 16 0.00 0.00
2:52 pm 14:52 Partly Cloudy 83 28.3 61 16.1 48 48 N 9 15 29.90 1012 10 16 0.00 0.00
3:52 pm 15:52 Partly Cloudy 84 28.9 60 15.6 44 44 N 10 17 29.90 1013 10 16 0.00 0.00
4:52 pm 16:52 Partly Cloudy 81 27.2 61 16.1 51 51 N 12 19 29.91 1013 10 16 0.00 0.00
5:52 pm 17:52 Mostly Cloudy 77 25 63 17.2 62 62 N 12 19 29.93 1014 10 16 0.00 0.00
6:52 pm 18:52 Cloudy 74 23.3 63 17.2 69 69 N 9 15 29.96 1014 10 16 0.00 0.00
7:52 pm 19:52 Cloudy 71 21.7 62 16.7 73 73 NNW 10 17 29.98 1015 10 16 0.00 0.03
8:52 pm 20:52 Cloudy 70 21.1 62 16.7 76 76 N 3 6 29.98 1015 10 16 0.00 0.03
9:52 pm 21:52 Cloudy 67 19.4 62 16.7 84 84 N 12 19 30.01 1016 10 16 0.00 0.03
10:52 pm 22:52 Partly Cloudy 65 18.3 60 15.6 84 84 N 8 13 30.02 1017 10 16 0.00 0.00
11:52 pm 23:52 Clear 63 17.2 60 15.6 90 90 N 9 15 30.04 1017 10 16 0.00 0.00

Powered by AerisWeather